Regional Weather Roundup
Issued by NWS

Home | Current Version | Previous Version | Text Only | Print | Product List | Glossary Off
Versions: 1 2 3 4 5 6 7 8 9 10 11 12 13 14 15 16 17 18 19 20 21 22 23 24 25 26 27 28 29 30 31 32 33 34 35 36 37 38 39 40 41 42 43 44 45 46 47 48 49 50

000
ASUS43 KLOT 231708
RWRIL

ILLINOIS REGIONAL WEATHER ROUNDUP
NATIONAL WEATHER SERVICE CHICAGO/ROMEOVILLE IL
1100 AM CST THU NOV 23 2017

NOTE: "FAIR" INDICATES FEW OR NO CLOUDS BELOW 12,000 FEET WITH NO
SIGNIFICANT WEATHER AND/OR OBSTRUCTIONS TO VISIBILITY.

* THESE STATIONS ARE NOT UNDER NWS QUALITY CONTROL. THEY ALSO MAY NOT
  REPORT WEATHER SUCH AS PRECIPITATION OR FOG.

ILZ001-002-007-009-015-016-024-231800-
NORTHWEST ILLINOIS

CITY           SKY/WX    TMP DP  RH WIND       PRES   REMARKS
MOLINE         SUNNY     44  23  43 W8        29.97F
STERLING*      SUNNY     41  24  51 W10       29.98F
SAVANNA*       SUNNY     40  23  50 W3        29.96F
$$

ILZ003-004-008-010-011-017-018-231800-
NORTH CENTRAL ILLINOIS

CITY           SKY/WX    TMP DP  RH WIND       PRES   REMARKS
ROCKFORD       SUNNY     41  22  46 SW7       29.98F
FREEPORT*      SUNNY     38  23  53 SW8       29.97F WCI  33
ROCHELLE*      SUNNY     39  24  54 SW12      29.98F WCI  32
DE KALB*       SUNNY     40  24  54 W12       29.98F
PERU*          SUNNY     41  22  47 SW12      29.99F
$$

ILZ005-006-012>014-019>023-231800-
NORTHEAST ILLINOIS

CITY           SKY/WX    TMP DP  RH WIND       PRES   REMARKS
CHICAGO-OHARE  MOSUNNY   41  21  44 SW12G21   29.97F
CHICAGO-MIDWAY MOSUNNY   43  22  43 SW15      29.98F
AURORA         SUNNY     41  24  51 SW10      29.98F
LANSING*       SUNNY     41  28  59 SW14      30.00F
JOLIET*        SUNNY     44  24  45 SW9G16    29.99F
WAUKEGAN       SUNNY     42  23  46 VRB6G17   29.95F
DUPAGE AIRPORT SUNNY     41  24  51 S13       29.97F
KANKAKEE*      SUNNY     41  24  51 SW10G17   30.02F
WHEELING       SUNNY     41  22  46 SW10      29.99F
MORRIS*        SUNNY     43  25  48 SW10      29.98F
ROMEOVILLE*    SUNNY     43  24  47 SW14G22   29.98F
NORTHERLY ISL    N/A     41  19  41 S10         N/A
$$

LMZ740>746-231800-
SOUTHERN LAKE MICHIGAN

STATION/POSITION SKY/WX   TEMP    WIND        PRES    VSBY  WAVE
                          AIR SEA DIR/SP/G                  HT/PER
                          (F)     (DEG/KT/KT) (MB)    (MI)  (FT/S)
SOUTHERN BUOY              39 47  250/ 17/ 21 1016.1          4/ 5
HARRISON CRIB              40     210/ 15/ 17   N/A
BURNHAM HARBOR             41     200/ 10/ 15   N/A
CALUMET HARBOR             40     200/ 10/ 13 1015.0F
BURNS HARBOR               40     200/ 13/ 17 1016.6F
MICHIGAN CITY              38     180/ 12/ 14   N/A
$$

ILZ025>027-034>036-040-047-049-050-058-095>099-231800-
WEST-CENTRAL ILLINOIS

CITY           SKY/WX    TMP DP  RH WIND       PRES   REMARKS
QUINCY         SUNNY     44  25  47 W10       30.01R
GALESBURG*     SUNNY     43  26  51 SW6       29.98F
MACOMB*        SUNNY     43  25  49 W8        30.01F
JACKSONVILLE*  SUNNY     45  23  42 SW10      30.02S
PITTSFIELD*    SUNNY     46  25  43 SW9       30.02F
$$

ILZ028>032-037-038-041>044-048-051>054-059>061-231800-
CENTRAL ILLINOIS

CITY           SKY/WX    TMP DP  RH WIND       PRES   REMARKS
PONTIAC        SUNNY     45  25  44 SW14      30.00F
BLOOMINGTON    SUNNY     43  25  49 SW15      30.00F
DECATUR        SUNNY     44  24  45 SW13G23   30.03F
PEORIA         SUNNY     42  23  46 SW9       30.00F
LACON*         SUNNY     42  23  46 SW10      29.98F
LINCOLN*       SUNNY     46  27  46 SW7       30.02F
SPRINGFIELD    SUNNY     47  25  42 SW12      30.03F
TAYLORVILLE    SUNNY     45  26  48 S15       30.03F
$$

ILZ033-039-045-046-055>057-062-063-231800-
EAST-CENTRAL ILLINOIS

CITY           SKY/WX    TMP DP  RH WIND       PRES   REMARKS
CHAMPAIGN      SUNNY     43  25  49 S14       30.05F
DANVILLE*      SUNNY     39  25  56 S13       30.03F WCI  32
RANTOUL*       SUNNY     44  27  51 SW9       30.04F
MATTOON        SUNNY     41  25  53 S10       30.05F
PARIS*         MOSUNNY   39  27  62 S8        30.09F WCI  33
$$

ILZ079-100>102-231800-
SOUTHWEST ILLINOIS

CITY           SKY/WX    TMP DP  RH WIND       PRES   REMARKS
ALTON          SUNNY     45  27  49 S10       30.05F
BELLEVILLE     SUNNY     47  25  41 SW9       30.06F
CAHOKIA*       SUNNY     45  21  38 SW8       30.06F
SPARTA*        SUNNY     45  26  48 S8        30.09F
$$

ILZ064>066-069>071-074>076-080>082-084>086-088>090-092>094-231800-
SOUTH-CENTRAL ILLINOIS

CITY           SKY/WX    TMP DP  RH WIND       PRES   REMARKS
CARBONDALE     SUNNY     46  24  42 SW7       30.12F
CAIRO*         SUNNY     43  26  52 SW5       30.14F
EFFINGHAM*     SUNNY     43  27  51 S7        30.09F
MARION         MOSUNNY   46  25  42 S12       30.12F
MT. VERNON     SUNNY     44  27  51 SW9       30.11F
CENTRALIA*     SUNNY     46  29  51 S9        30.08F
SALEM*         SUNNY     46  24  42 S8        30.08F
METROPOLIS*    SUNNY     44  25  46 SW3       30.14F
$$

ILZ067-068-072-073-078-083-087-091-231800-
SOUTHEAST ILLINOIS

CITY           SKY/WX    TMP DP  RH WIND       PRES   REMARKS
LAWRENCEVILLE  CLOUDY    41  27  57 S7        30.12F
FLORA*         SUNNY     44  27  50 SW8       30.10F
FAIRFIELD*     MOSUNNY   43  26  51 S3        30.10F
HARRISBURG*    SUNNY     44  26  47 SW6       30.13F
ROBINSON*      CLOUDY    41  24  51 S9        30.11F
CARMI*         SUNNY     42  26  52 S5        30.12F
$$

ABBREVIATIONS USED IN REMARKS
   TC - TEMPERATURE IN CELSIUS
  WCI - WIND CHILL INDEX
   HX - HEAT INDEX
  VSB - VISIBILITY
$$




USA.gov is the U.S. government's official web portal to all federal, state and local government web resources and services.